Total_Precipitation_Accumulation
1.62 1.54 2.50 2.51 2.25 2.03 1.91 1.89 2.02 2.13 2.18 2.19 2.15 2.04 1.89 1.86 1.92 2.02 2.15 2.09 2.04 2.02 2.03 2.02 2.05 2.09 1.97 1.76 1.79 2.00 2.28 2.45 2.32 2.22 2.22 2.22 2.35 2.40 2.61 2.83 2.86 2.84 2.90
1.25 1.42 2.36 2.35 2.13 1.92 1.90 1.96 1.98 1.96 1.97 2.07 2.18 2.04 1.93 1.94 2.03 2.11 2.17 2.11 2.03 1.98 1.96 2.04 2.11 2.07 1.92 1.81 1.87 2.09 2.27 2.35 2.34 2.50 2.78 2.66 2.68 2.77 2.78 2.82 2.89 2.96 2.94
1.07 1.25 1.81 2.21 2.09 1.97 1.92 1.89 1.98 2.00 1.94 1.96 2.05 2.05 1.96 2.12 2.26 2.27 2.23 2.16 2.14 2.05 2.02 2.03 2.01 2.01 1.86 1.93 2.13 2.21 2.13 2.19 2.44 2.59 2.99 3.18 2.80 2.82 2.84 2.92 2.85 2.98 3.00
0.92 1.09 1.57 2.22 2.13 2.06 2.05 2.09 2.18 2.15 1.94 1.84 1.83 1.79 1.82 2.00 2.23 2.37 2.38 2.28 2.33 2.24 2.07 1.94 1.86 1.96 1.89 1.93 2.17 2.13 2.06 2.20 2.48 2.51 2.68 3.02 2.91 2.94 3.13 3.24 3.14 3.12 3.16
0.98 1.06 1.67 2.32 2.13 2.05 2.07 2.24 2.25 2.10 1.99 1.86 1.82 1.82 1.81 1.98 2.22 2.36 2.26 2.28 2.42 2.40 2.24 2.10 1.96 2.03 1.99 2.00 2.04 2.05 2.16 2.30 2.43 2.14 2.36 2.73 3.42 3.49 3.02 3.22 3.34 3.25 3.09
0.87 0.97 1.51 2.23 2.10 1.98 2.02 2.26 2.18 2.00 2.03 1.92 1.85 1.93 2.04 2.26 2.47 2.47 2.37 2.49 2.45 2.42 2.28 2.20 2.06 2.06 2.05 2.04 2.04 2.12 2.29 2.36 2.07 2.06 2.32 2.63 3.22 3.44 2.85 2.88 3.00 3.07 3.01
0.87 0.92 1.26 1.94 1.99 1.91 1.97 2.09 2.04 2.09 2.14 1.99 1.90 1.96 2.13 2.31 2.44 2.54 2.53 2.58 2.56 2.53 2.39 2.23 2.12 2.01 1.97 2.02 1.99 2.09 2.27 2.11 1.74 2.07 2.26 2.67 2.94 3.08 2.70 2.65 2.76 2.98 3.28
0.98 0.89 1.06 1.64 1.81 1.83 1.99 1.99 1.97 2.04 2.00 1.93 1.96 2.01 2.07 2.17 2.29 2.37 2.40 2.47 2.46 2.46 2.48 2.34 2.23 2.07 2.01 1.92 2.02 2.18 2.19 1.79 1.38 1.72 2.11 2.64 3.22 3.16 2.69 2.51 2.66 2.95 3.37
1.35 1.16 1.15 1.25 1.38 1.69 2.03 2.03 2.08 2.10 1.91 1.81 1.81 1.86 1.87 1.92 2.05 2.09 2.17 2.26 2.25 2.35 2.38 2.26 2.15 2.13 2.10 1.97 1.92 2.03 2.00 1.74 1.52 1.67 1.65 2.55 3.37 3.20 2.72 2.49 2.51 2.74 3.03
1.36 1.29 1.21 1.22 1.23 1.49 1.67 1.94 2.20 2.22 2.04 1.81 1.73 1.71 1.82 1.78 1.82 1.92 1.94 2.20 2.30 2.31 2.34 2.28 2.19 2.09 2.13 2.10 1.99 1.93 1.84 1.55 1.33 1.41 1.80 2.54 3.32 3.22 2.83 2.52 2.38 2.32 2.52
1.27 1.29 1.21 1.21 1.29 1.53 1.69 1.76 2.05 2.21 2.17 1.73 1.48 1.51 1.50 1.40 1.46 1.56 1.63 2.14 2.32 2.50 2.54 2.42 2.25 2.12 2.03 2.00 1.99 1.87 1.49 1.26 1.23 1.40 1.89 2.89 3.46 3.44 2.96 2.58 2.37 2.19 2.09
1.11 1.12 1.12 1.12 1.14 1.25 1.40 1.79 1.98 1.79 1.86 1.51 1.41 1.36 1.35 1.41 1.44 1.30 1.48 1.99 2.21 2.43 2.53 2.41 2.28 2.03 1.79 1.62 1.58 1.52 1.28 1.09 1.10 1.32 2.05 3.17 3.72 3.77 3.20 2.67 2.27 2.04 2.02
0.98 0.90 0.85 0.90 0.87 0.92 1.09 1.28 1.57 1.81 1.80 1.74 1.66 1.54 1.54 1.42 1.28 1.28 1.42 1.61 1.81 2.00 2.05 2.10 2.02 1.78 1.60 1.53 1.49 1.34 1.25 1.04 1.12 1.32 2.16 3.12 3.70 3.91 3.53 2.89 2.35 2.23 2.33
1.02 1.02 0.83 0.75 0.75 0.76 0.83 1.00 1.26 1.47 1.56 1.56 1.47 1.35 1.54 1.51 1.34 1.36 1.55 1.66 1.71 1.88 2.14 2.20 2.13 1.89 1.67 1.51 1.46 1.32 1.21 1.12 1.12 1.26 1.99 2.67 3.26 3.63 3.69 3.31 2.74 2.47 2.43
1.03 1.09 0.96 0.76 0.72 0.77 0.80 0.87 0.94 1.16 1.28 1.30 1.43 1.32 1.36 1.39 1.29 1.25 1.35 1.60 1.70 1.77 2.02 2.14 2.01 1.94 1.92 1.81 1.65 1.51 1.41 1.30 1.29 1.26 1.65 2.15 2.67 3.24 3.70 3.63 3.18 2.68 2.51
0.90 0.96 0.93 0.83 0.81 0.81 0.76 0.73 0.74 0.78 0.99 1.03 1.03 0.95 1.13 1.29 1.29 1.32 1.28 1.44 1.72 1.82 1.89 1.92 1.87 1.92 1.90 1.85 1.71 1.63 1.57 1.36 1.44 1.43 1.53 1.63 1.90 2.37 3.12 3.55 3.33 2.88 2.67
0.78 0.82 0.87 0.89 0.88 0.85 0.84 0.82 0.76 0.77 0.85 0.95 0.99 0.95 1.06 1.19 1.29 1.29 1.21 1.32 1.58 1.79 1.86 1.87 1.85 1.94 1.83 1.69 1.71 1.71 1.66 1.53 1.56 1.61 1.58 1.56 1.50 1.77 2.42 3.10 3.24 3.09 3.02
0.61 0.67 0.74 0.75 0.82 0.85 0.87 0.92 0.89 0.91 0.91 0.91 0.96 0.93 0.95 1.12 1.27 1.37 1.31 1.28 1.48 1.74 1.98 2.16 2.05 2.01 1.96 1.82 1.84 1.80 1.67 1.68 1.67 1.66 1.61 1.61 1.63 1.52 1.72 2.10 2.51 2.93 3.13
0.49 0.49 0.55 0.63 0.74 0.80 0.87 0.96 0.93 0.96 1.11 1.15 1.04 0.94 1.00 1.12 1.21 1.44 1.57 1.49 1.54 1.77 1.90 2.01 2.07 1.97 1.96 1.90 1.75 1.71 1.62 1.69 1.76 1.60 1.59 1.59 1.65 1.61 1.56 1.41 1.60 2.03 2.59
0.47 0.46 0.48 0.56 0.62 0.63 0.78 0.93 1.03 1.01 1.07 1.28 1.33 1.32 1.35 1.42 1.42 1.57 1.71 1.73 1.75 1.88 1.90 2.09 2.36 2.21 2.00 1.94 1.77 1.68 1.62 1.65 1.67 1.66 1.71 1.71 1.69 1.65 1.61 1.45 1.39 1.31 1.74
0.46 0.43 0.49 0.55 0.59 0.59 0.69 0.83 0.94 1.05 1.20 1.39 1.46 1.52 1.66 1.70 1.71 1.84 1.94 2.01 1.96 1.89 1.97 2.18 2.62 2.59 2.29 2.04 2.02 1.91 1.77 1.71 1.73 1.68 1.80 1.87 1.76 1.70 1.73 1.64 1.48 1.34 1.27
0.43 0.42 0.45 0.56 0.65 0.67 0.73 0.87 1.05 1.30 1.38 1.53 1.74 1.73 1.73 1.78 1.84 1.91 2.12 2.22 2.18 2.17 2.25 2.33 2.64 2.86 2.63 2.42 2.43 2.62 2.38 2.15 1.80 1.52 1.56 1.64 1.68 1.72 1.69 1.70 1.59 1.45 1.40
0.41 0.49 0.52 0.64 0.82 0.99 1.07 1.30 1.62 1.87 1.92 1.85 1.89 1.96 1.96 1.97 2.04 2.00 2.07 2.25 2.27 2.26 2.34 2.56 2.87 3.23 3.23 2.93 2.69 2.90 2.67 2.37 2.25 1.74 1.42 1.45 1.58 1.70 1.71 1.77 1.72 1.58 1.52
0.43 0.57 0.75 0.95 1.24 1.46 1.57 1.74 2.01 2.14 2.17 2.07 2.07 2.08 2.11 2.04 1.97 1.97 2.04 2.20 2.36 2.50 2.64 2.70 2.68 3.13 3.50 3.33 3.09 2.70 2.40 2.26 2.40 2.25 1.76 1.44 1.47 1.53 1.60 1.61 1.71 1.77 1.71
0.66 0.88 1.23 1.51 1.71 1.84 1.87 1.92 2.15 2.30 2.46 2.48 2.35 2.20 2.15 2.16 2.11 2.00 1.99 2.02 2.07 2.19 2.35 2.49 2.56 2.83 3.12 3.33 3.29 3.05 2.74 2.54 2.09 2.09 2.15 1.89 1.61 1.38 1.37 1.50 1.69 1.76 1.75
1.08 1.31 1.55 1.71 1.86 1.84 1.81 1.83 1.96 2.16 2.33 2.35 2.37 2.34 2.25 2.18 2.11 1.97 1.87 1.92 1.94 1.94 2.08 2.21 2.34 2.64 2.87 3.03 3.12 3.03 2.92 2.85 2.52 2.22 2.02 1.98 1.83 1.58 1.42 1.42 1.50 1.58 1.65